Hourly Data Report for June 26, 2012

All times are specified in Local Standard Time (LST). Add 1 hour to adjust for Daylight Saving Time where and when it is observed.

MONCTON INTL A
NEW BRUNSWICK

46°06'44.000" N
64°40'43.000" W
70.70 m
8103201
71705
YQM

Download Data

Hourly Data (June 2012)
Hourly Data Report for June 26, 2012
Temp Definition
°C
Dew Point Temp Definition
°C
Rel Hum Definition
%
Wind Dir Definition
10's deg

Wind Spd Definition
km/h
Visibility Definition
km
Stn Press Definition
kPa
Hmdx Definition


Wind Chill Definition


Weather Definition


TIME
00:00 Legend Double Dagger 16.4 14.6 89 15 22 10.0 100.28     LegendNANA
01:00 Legend Double Dagger 16.3 14.9 91 16 18 10.0 100.28     LegendNANA
02:00 Legend Double Dagger 16.6 14.8 89 16 19 10.0 100.25     Mostly Cloudy
03:00 Legend Double Dagger 16.2 14.8 91 13 13 10.0 100.22     LegendNANA
04:00 Legend Double Dagger 16.5 15.1 91 12 17 10.0 100.19     LegendNANA
05:00 Legend Double Dagger 16.4 15.3 93 8 11 10.0 100.16     Mostly Cloudy
06:00 Legend Double Dagger 16.6 15.5 93 9 13 10.0 100.11     LegendNANA
07:00 Legend Double Dagger 17.8 15.8 88 11 18 10.0 100.07     LegendNANA
08:00 Legend Double Dagger 17.6 15.8 89 8 22 10.0 100.00     Cloudy
09:00 Legend Double Dagger 16.4 15.8 96 7 21 4.8 99.97     Moderate Rain Showers,Fog
10:00 Legend Double Dagger 16.7 16.4 98 7 21 2.4 99.85     Moderate Rain Showers,Fog
11:00 Legend Double Dagger 18.1 17.3 95 9 29 10.0 99.82     Rain Showers
12:00 Legend Double Dagger 18.2 17.7 97 8 22 3.2 99.73     Rain Showers,Fog
13:00 Legend Double Dagger 17.1 16.8 98 8 26 2.4 99.67     Heavy Rain Showers,Fog
14:00 Legend Double Dagger 17.3 17.0 98 9 23 10.0 99.60     Rain Showers
15:00 Legend Double Dagger 17.5 16.2 92 13 20 10.0 99.58     Rain Showers
16:00 Legend Double Dagger 16.5 16.0 97 6 19 8.1 99.47     Rain,Fog
17:00 Legend Double Dagger 16.2 16.0 99 6 22 4.0 99.22     Moderate Rain,Fog
18:00 Legend Double Dagger 16.5 16.2 98 6 28 2.0 98.98     Heavy Rain,Fog
19:00 Legend Double Dagger 16.5 16.0 97 9 35 2.4 98.88     Rain,Fog
20:00 Legend Double Dagger 16.9 16.6 98 11 20 2.4 98.91     Rain,Fog
21:00 Legend Double Dagger 16.8 16.5 98 16 19 10.0 99.07     LegendNANA
22:00 Legend Double Dagger 16.2 15.9 98 15 14 10.0 99.16     LegendNANA
23:00 Legend Double Dagger 16.3 15.8 97 15 17 10.0 99.21     Mostly Cloudy

Notes on Data Quality.

Legend

  • E = Estimated
  • M = Missing
  • NA = Not Available
  • ‡ = Partner data that is not subject to review by the National Climate Archives
Date modified: